Torna al catalogo

CZ-2D DEB

AttivoSSO
NORAD 43413·DEBRIS·🇨🇳 China

Lanciato Nov 25, 2013 da Jiuquan Satellite Launch Center

Loading…

Prossimi Passaggi (prossime 24 ore)

TLE

AggiornatoSource: Space-Track

Epoca: Sep 14, 2026, 03:17 UTC

1 43413U 13068B   26257.13717891  .00001242  00000-0  29432-3 0  9994
2 43413  97.9723  22.1116 0106505  32.7795 327.9950 14.52277430664991

Traccia CZ-2D DEB in tempo reale con AllMySat

Download on the App Store